SCP
0 0 0 0 0 0 0 0 0 0 0 0 0 0 0 0 0 0 0 0 0 0 0 0 0 1 1 1 0 0 0 0 0 0 0 0 0 0 0 0 0 0 0 1
0 0 0 0 0 0 0 0 0 0 0 0 0 0 0 0 0 0 0 0 0 0 0 0 0 1 1 1 0 0 0 0 0 0 0 0 0 0 0 0 0 0 0 0
0 0 0 0 0 0 0 0 0 0 0 0 0 0 0 0 0 0 0 0 0 0 0 0 0 0 1 1 0 0 0 0 0 0 0 0 0 0 0 0 0 0 0 0
0 0 0 0 0 0 0 0 0 0 0 0 0 0 0 0 0 0 0 0 0 0 0 0 0 0 1 1 1 0 0 0 0 0 0 0 0 0 0 0 0 0 0 0
0 0 0 0 0 0 0 0 0 0 0 0 0 0 0 0 0 0 0 0 0 0 0 0 0 0 1 1 1 1 0 0 0 0 0 0 0 0 0 0 0 0 0 0
0 0 0 0 0 0 0 0 0 0 0 0 0 0 0 0 0 0 0 0 0 0 0 0 0 1 1 1 1 1 0 0 0 0 0 0 0 0 0 0 0 0 0 0
0 0 0 0 0 0 0 0 0 0 0 0 0 0 0 0 0 0 0 0 0 0 0 0 0 1 1 1 1 1 1 0 0 0 0 0 0 0 0 0 0 0 0 0
0 0 0 0 0 0 0 0 0 0 0 0 0 0 0 0 0 0 0 0 0 0 0 0 1 1 1 1 1 1 0 0 0 0 0 0 0 0 0 0 0 0 0 0
0 0 0 0 0 0 0 0 0 0 0 0 0 0 0 0 0 0 0 0 0 0 0 0 1 1 1 1 1 1 0 0 0 0 0 0 0 0 0 0 0 0 0 0
0 0 0 0 0 0 0 0 0 0 0 0 0 0 0 0 0 0 0 0 0 0 0 0 0 1 1 1 1 1 0 0 0 0 0 0 0 0 0 0 0 0 0 0
0 0 0 0 0 0 0 0 0 0 0 0 0 0 0 0 0 0 0 0 0 0 0 1 0 1 1 1 1 1 0 0 0 0 0 0 0 0 0 0 0 0 0 0
0 0 0 0 0 0 0 0 0 0 0 0 0 0 0 0 0 0 0 0 0 0 0 1 1 0 1 1 1 0 0 0 0 0 0 0 0 0 0 0 0 0 0 0
0 0 0 0 0 0 0 0 0 0 0 0 0 0 0 0 0 0 0 0 0 0 1 1 1 0 0 1 0 0 0 0 0 0 0 0 0 0 0 0 0 0 0 0
0 0 0 0 0 0 0 0 0 0 0 0 0 0 0 0 0 0 0 1 1 1 1 1 1 1 1 1 1 0 0 0 0 0 0 0 0 0 0 0 0 0 0 0
0 0 0 0 0 0 0 0 0 0 0 0 0 0 0 0 0 0 0 1 1 1 1 1 1 1 1 1 1 1 1 0 0 1 1 1 0 0 0 0 0 0 0 0
0 0 0 0 0 0 0 0 0 0 0 0 0 0 0 0 0 0 0 0 1 1 1 1 1 1 0 0 1 1 1 1 1 1 1 1 1 0 0 0 0 0 0 0
0 0 0 0 0 0 0 0 0 0 0 0 0 0 0 0 0 0 0 0 0 1 1 0 0 0 0 0 0 1 0 1 1 1 1 1 1 0 0 0 0 0 0 0
0 0 0 0 0 0 0 0 0 0 0 0 0 0 0 0 0 0 0 0 0 0 0 0 0 0 0 0 0 0 0 1 1 1 1 1 1 1 0 0 0 0 0 0
0 0 0 0 0 0 0 0 0 0 0 0 0 0 0 0 0 0 0 0 0 0 0 0 0 0 0 0 0 0 0 1 1 1 1 1 1 0 0 0 0 0 0 1
0 0 0 0 0 0 0 0 0 0 0 0 0 0 0 0 0 0 0 0 0 0 1 1 1 1 0 0 1 0 0 1 1 1 1 1 0 0 0 0 0 0 0 1
0 0 0 0 0 0 0 0 0 0 0 0 0 0 0 0 0 0 0 0 0 1 1 1 1 1 1 1 1 0 0 1 1 1 0 0 0 0 0 0 0 0 0 1
0 0 0 0 0 0 0 0 0 0 0 0 0 0 0 0 0 0 0 0 0 1 1 1 1 1 1 0 0 0 0 0 1 1 0 0 0 0 0 0 0 0 0 0
0 0 0 0 0 0 0 0 0 0 0 0 0 0 0 0 0 0 0 0 1 1 1 1 1 1 1 0 0 0 0 1 1 1 1 0 0 0 0 0 0 0 0 0
0 0 0 0 0 0 0 0 0 0 0 0 0 0 0 0 0 0 0 0 1 1 1 1 1 0 0 0 0 0 1 1 1 1 1 1 0 0 0 0 0 0 0 0
0 0 0 0 0 0 0 0 0 0 0 0 0 0 0 0 0 0 0 0 0 0 0 0 0 0 0 0 0 0 1 1 1 1 1 1 1 1 1 1 0 0 0 0
0 0 0 0 0 0 0 0 0 0 0 0 0 0 0 0 0 0 0 0 0 0 0 0 0 0 0 0 0 0 0 1 1 1 1 1 1 1 1 1 0 0 0 0
Wind_Speed
3 5 5 4 3 1 2 2 2 0 0 2 2 2 2 3 5 5 5 5 5 4 4 4 4 5 5 5 4 4 4 4 3 2 1 1 2 1 2 2 3 3 3 2
6 5 2 2 3 4 5 4 3 1 1 3 3 4 3 3 5 4 5 5 5 5 4 5 5 6 6 5 5 5 4 4 3 1 1 1 1 1 2 1 2 2 2 2
5 2 3 5 6 6 5 5 3 2 2 5 5 4 3 3 4 4 4 5 5 4 5 5 6 6 6 6 5 4 5 5 4 3 2 2 2 1 2 2 2 2 2 2
3 2 5 6 5 6 4 2 4 4 5 2 4 4 1 2 4 4 5 5 5 5 5 5 6 7 7 6 5 5 5 5 4 4 2 2 1 1 1 1 2 2 2 2
3 4 5 6 4 5 1 1 3 4 6 6 5 6 1 3 3 3 4 5 5 5 5 5 5 7 6 6 5 5 5 5 4 3 3 2 1 1 1 1 2 2 2 1
2 2 3 2 1 2 4 5 4 5 6 6 3 5 2 2 2 2 3 4 5 5 5 5 5 6 6 6 6 5 5 5 4 3 3 3 2 2 2 1 1 1 1 1
5 5 3 3 4 5 6 6 5 5 5 3 1 5 3 2 1 2 2 3 4 5 5 5 6 7 7 7 7 6 6 5 4 4 3 3 2 1 2 1 1 1 1 1
6 6 4 4 5 5 7 8 6 4 3 2 4 5 1 2 1 1 2 2 4 5 4 5 6 7 7 8 7 7 6 5 5 4 4 3 2 1 1 1 1 1 1 0
4 3 3 2 2 5 6 7 6 7 6 6 4 3 3 3 2 2 2 3 4 4 4 5 5 7 7 7 7 7 7 6 5 4 4 3 3 2 2 2 1 1 1 1
4 4 3 2 4 1 4 4 5 7 6 6 4 5 2 4 3 3 3 3 3 4 4 5 5 6 6 6 6 6 6 6 5 4 3 2 2 2 2 2 2 1 1 1
5 6 4 5 6 5 5 6 7 6 7 6 5 1 2 1 1 2 3 2 3 4 4 4 5 6 6 6 6 6 6 5 4 4 4 4 3 3 3 2 2 2 2 2
4 6 6 5 1 3 6 6 7 7 7 7 7 2 2 1 1 2 2 2 2 3 4 4 5 6 6 6 6 6 5 5 5 4 4 4 3 3 3 3 2 2 2 2
3 6 6 6 6 5 6 5 7 7 7 8 9 3 3 0 0 1 2 2 3 4 4 5 5 5 5 6 6 5 5 4 4 4 4 4 4 4 4 3 3 3 2 2
5 7 8 7 3 3 6 7 8 9 9 10 11 9 5 4 3 2 3 3 3 4 4 4 5 5 5 5 6 6 5 4 4 4 4 4 4 4 4 4 3 3 3 3
5 8 8 8 5 7 9 10 11 13 13 13 12 11 9 8 6 5 4 4 4 4 4 4 4 4 5 5 5 5 5 4 4 4 4 4 4 4 4 3 3 4 3 3
4 7 7 9 8 8 12 13 14 15 14 14 14 14 9 7 6 5 5 5 5 5 4 4 4 5 5 5 5 5 5 4 4 4 4 4 4 4 4 4 4 4 3 3
5 7 7 8 6 8 13 12 13 12 11 12 13 10 6 6 6 6 6 6 5 4 4 4 4 4 4 4 5 5 4 4 4 4 4 4 4 3 4 3 4 4 4 4
8 8 6 7 7 12 4 1 6 10 11 10 10 9 7 7 6 5 5 6 5 4 3 3 3 3 3 4 4 4 4 4 5 5 4 4 4 4 4 4 4 4 4 4
8 8 6 6 9 10 6 4 4 7 8 7 8 7 4 3 4 5 5 4 4 3 3 3 3 3 3 3 3 4 4 5 5 4 4 4 4 4 5 5 5 4 4 4
6 8 8 7 9 9 2 1 1 6 8 3 5 5 4 4 6 4 4 3 3 2 2 2 2 2 3 3 3 4 5 5 5 4 4 4 5 5 5 6 5 4 4 4
8 8 10 11 10 8 1 1 3 7 2 3 3 4 5 7 4 1 2 2 2 2 2 2 2 2 2 3 4 5 5 5 4 4 4 4 5 5 5 5 5 5 5 5
8 8 9 8 10 7 3 3 5 4 5 4 4 4 5 4 1 1 2 2 2 2 2 2 3 3 3 4 4 5 4 3 3 3 4 5 5 5 4 5 5 5 5 5
8 6 4 6 5 2 2 5 5 6 6 5 5 5 4 4 3 3 3 2 2 2 3 3 3 3 3 4 5 5 4 3 4 4 5 5 5 5 5 5 5 5 5 5
6 4 6 7 7 6 5 6 6 7 7 6 5 4 4 4 4 3 3 3 3 3 3 3 4 4 4 4 5 5 4 4 5 6 5 5 5 5 5 4 5 5 5 5
6 6 7 10 8 7 7 7 7 7 6 5 4 4 4 4 4 4 4 4 4 4 4 4 5 5 5 5 5 5 4 5 5 6 5 5 5 5 5 5 5 5 5 5
7 8 9 9 8 7 7 6 6 6 6 5 4 4 4 5 5 5 5 4 4 5 5 5 5 6 5 5 5 4 5 5 5 5 5 4 4 4 4 4 4 4 5 5
Wind_Direction
184 202 193 195 222 235 202 205 206 183 300 256 268 279 256 209 215 216 204 198 196 192 179 167 169 174 171 168 169 145 141 133 126 131 127 112 102 95 89 75 71 84 80 79
195 202 186 170 177 191 205 217 211 189 184 261 284 285 266 223 221 222 216 205 201 194 181 175 180 177 174 169 169 156 148 142 141 132 116 107 93 77 75 98 98 87 82 76
219 114 150 181 188 204 218 234 238 242 237 235 270 263 210 188 197 205 220 219 206 200 195 184 182 177 172 173 173 163 155 155 152 143 135 125 115 126 130 119 100 89 92 81
212 159 181 199 210 226 231 236 236 240 252 260 275 285 218 187 192 194 201 209 208 197 199 192 184 179 180 177 176 169 159 158 149 152 160 149 141 116 93 92 109 114 100 89
184 184 204 216 225 234 254 190 223 248 267 267 244 261 222 179 215 209 198 201 205 199 195 193 189 183 178 170 172 174 161 156 154 164 162 183 140 119 124 134 124 132 117 111
212 207 236 244 228 212 163 185 197 226 250 254 251 255 255 172 237 226 197 196 197 194 192 188 180 176 170 165 166 167 166 160 159 177 185 190 161 162 151 161 143 147 138 145
199 196 192 204 196 179 208 229 230 221 219 235 159 248 258 62 334 275 231 191 179 183 185 182 177 175 172 170 171 169 169 169 172 185 195 188 190 194 184 182 169 184 163 168
210 195 182 204 231 228 225 241 256 272 267 250 205 241 146 75 297 260 218 184 171 173 179 180 179 177 174 174 175 176 175 175 178 192 198 198 189 212 197 198 209 215 209 171
227 192 142 203 250 238 220 231 268 279 278 270 229 220 189 171 182 166 168 170 172 175 179 179 176 176 174 173 174 177 176 177 181 193 204 212 213 209 203 205 207 206 209 199
253 231 177 171 186 190 267 227 221 238 256 255 240 237 213 178 192 184 182 182 175 174 175 176 173 173 171 169 171 174 177 174 178 190 204 217 224 216 231 235 217 218 209 205
244 238 198 196 216 212 193 206 229 243 256 267 265 216 69 271 214 210 197 183 180 174 173 170 169 166 165 165 168 173 176 176 178 188 199 207 205 219 217 221 224 236 218 199
229 254 236 224 226 282 242 235 233 246 244 253 272 262 98 301 256 230 211 176 165 170 169 168 162 160 164 167 170 174 177 179 183 189 199 206 197 212 221 218 225 228 228 227
199 239 236 207 193 195 218 220 234 252 259 251 254 245 124 175 226 223 217 177 160 164 167 167 164 164 166 171 173 172 178 177 182 195 209 211 207 217 223 228 227 233 230 229
247 243 251 263 284 217 227 223 229 240 248 253 254 268 250 254 252 243 214 189 173 169 171 174 173 173 171 174 180 176 177 176 183 197 213 219 219 222 227 234 234 234 227 225
248 249 251 263 267 255 254 244 235 242 252 262 268 269 271 263 253 241 219 200 190 182 181 184 186 186 180 177 184 180 177 178 190 202 215 222 228 225 228 231 231 232 226 228
249 250 250 250 245 254 259 253 245 247 252 257 265 266 269 267 250 230 214 204 204 196 192 192 197 198 195 187 189 188 188 188 196 206 216 218 228 222 224 229 227 226 227 229
225 238 247 254 247 263 255 246 240 238 238 247 255 262 260 249 243 236 218 205 205 201 198 197 201 207 205 200 198 198 197 196 204 212 216 215 221 224 227 228 226 222 225 226
232 235 246 259 247 247 262 219 243 245 246 244 256 264 252 257 256 238 212 203 202 195 198 199 201 206 215 207 202 200 199 205 211 214 214 217 219 222 223 224 227 227 225 221
233 227 235 243 249 262 258 233 229 238 252 243 249 258 262 269 239 212 193 206 210 204 208 212 209 208 213 211 201 202 202 207 213 217 214 216 217 220 222 224 227 227 226 225
205 223 234 235 248 254 265 90 280 256 251 228 247 244 229 214 237 212 171 200 214 217 209 209 212 215 209 209 206 211 211 213 215 218 222 222 226 223 225 228 228 223 222 225
192 206 225 236 248 259 344 74 218 236 328 9 271 248 225 230 271 25 168 202 211 221 218 212 217 219 206 204 210 222 219 218 220 223 224 225 228 229 227 228 224 220 221 223
216 213 218 227 237 246 123 183 232 308 341 305 277 261 246 254 291 223 203 208 219 228 220 219 222 225 212 208 220 228 227 224 222 221 225 227 229 229 224 222 222 220 217 220
230 237 242 235 248 325 234 254 290 305 294 291 279 273 254 245 249 248 241 241 241 242 234 229 228 230 229 222 224 233 235 223 219 222 226 229 230 228 225 219 217 218 217 223
226 244 244 246 250 260 264 270 281 288 290 294 283 265 242 246 252 253 253 256 259 254 248 240 235 233 235 234 233 236 233 223 224 228 231 229 229 227 223 221 221 220 220 224
239 218 238 250 259 269 262 265 275 281 284 285 276 260 250 248 251 259 265 266 267 266 255 245 241 241 242 239 241 238 236 228 230 230 231 229 226 225 223 222 227 229 230 233
224 228 237 252 256 259 269 275 276 272 273 278 278 275 267 258 258 262 265 265 262 262 260 252 247 244 240 238 240 239 238 231 231 232 229 229 225 224 223 225 228 230 239 233